KB7STN Weather Reports


time (UTC)temp
C
wind
direction
speed
KPH
gust
KPH
rain 1hr
cm
rain 24hr
cm
rain mn
cm
humidity
%
barometer
mb
20240222114443 0 9 0.0 0.0 0.00 0.18 0.13 92 1020.5
20240222113943 0 9 0.0 0.0 0.00 0.18 0.13 92 1020.5
20240222113443 0 9 0.0 0.0 0.00 0.18 0.13 92 1020.5
20240222112943 0 9 0.0 0.0 0.00 0.18 0.13 91 1020.5
20240222112443 0 9 0.0 0.0 0.00 0.18 0.13 92 1020.5
20240222111943 0 9 0.0 0.0 0.00 0.18 0.13 92 1020.4
20240222111443 0 9 0.0 0.0 0.00 0.18 0.13 92 1020.4
20240222110943 0 9 0.0 0.0 0.00 0.18 0.13 92 1020.4
20240222110443 0 9 0.0 0.0 0.00 0.18 0.13 92 1020.3
20240222105943 0 9 0.0 3.2 0.00 0.18 0.13 92 1020.4
20240222105443 0 9 0.0 1.6 0.00 0.18 0.13 92 1020.3
20240222104943 0 9 0.0 1.6 0.00 0.18 0.13 92 1020.2
20240222104443 0 9 0.0 1.6 0.00 0.18 0.13 93 1020.3
20240222103944 0 9 0.0 3.2 0.00 0.18 0.13 93 1020.3
20240222103444 0 9 0.0 0.0 0.00 0.18 0.13 93 1020.2
20240222102943 0 9 0.0 0.0 0.00 0.18 0.13 93 1020.2
20240222102444 0 9 0.0 0.0 0.00 0.18 0.13 93 1020.3
20240222101944 0 9 0.0 0.0 0.00 0.18 0.13 93 1020.3
20240222101444 0 9 0.0 1.6 0.00 0.18 0.13 93 1020.3
20240222100944 0 9 0.0 1.6 0.00 0.18 0.13 93 1020.3
20240222100444 0 9 0.0 1.6 0.00 0.18 0.13 93 1020.3
20240222095944 0 9 0.0 1.6 0.00 0.18 0.13 93 1020.4
20240222095444 0 9 0.0 1.6 0.00 0.18 0.13 93 1020.3
20240222094944 0 9 0.0 0.0 0.00 0.18 0.13 93 1020.3
20240222094444 0 9 0.0 0.0 0.00 0.18 0.13 93 1020.2
20240222093944 0 9 0.0 0.0 0.00 0.18 0.13 93 1020.2
20240222093444 0 9 0.0 0.0 0.00 0.18 0.13 93 1020.1
20240222092944 0 9 0.0 0.0 0.00 0.18 0.13 93 1020.1
20240222092444 0 9 0.0 0.0 0.00 0.18 0.13 93 1020.0
20240222091944 0 9 0.0 0.0 0.00 0.18 0.13 93 1020.0
20240222091444 0 9 0.0 0.0 0.00 0.18 0.13 92 1019.9
20240222090944 0 9 0.0 0.0 0.00 0.18 0.13 92 1019.9
20240222090444 0 9 0.0 0.0 0.00 0.18 0.13 92 1019.8
20240222085944 0 9 0.0 0.0 0.00 0.18 0.13 92 1019.8
20240222085444 0 9 0.0 0.0 0.00 0.18 0.13 92 1019.7
20240222084944 0 9 0.0 0.0 0.00 0.18 0.13 92 1019.6
20240222084444 0 9 0.0 0.0 0.00 0.18 0.13 92 1019.6
20240222083944 0 9 0.0 0.0 0.00 0.18 0.13 92 1019.6
20240222083444 0 9 0.0 0.0 0.00 0.18 0.13 92 1019.6
20240222082944 0 9 0.0 1.6 0.00 0.18 0.13 92 1019.7
20240222082444 0 9 0.0 1.6 0.00 0.18 0.13 92 1019.6
20240222081944 0 9 0.0 1.6 0.00 0.18 0.13 92 1019.6
20240222081444 0 9 0.0 1.6 0.03 0.18 0.13 92 1019.6
20240222080944 0 9 0.0 0.0 0.03 0.18 0.13 92 1019.5
20240222080444 0 9 0.0 0.0 0.03 0.18 0.13 92 1019.6
20240222075944 0 9 0.0 0.0 0.03 0.18 0.13 92 1019.7
20240222075444 0 9 0.0 0.0 0.03 0.18 0.13 92 1019.7
20240222074944 0 9 0.0 0.0 0.03 0.23 0.13 91 1019.6
20240222074444 0 9 0.0 0.0 0.03 0.23 0.13 91 1019.6
20240222073944 0 9 0.0 0.0 0.03 0.23 0.13 91 1019.7
20240222073444 0 9 0.0 1.6 0.03 0.23 0.13 91 1019.7
20240222072944 0 9 1.6 3.2 0.03 0.23 0.13 91 1019.6
20240222072444 0 9 1.6 4.8 0.03 0.23 0.13 91 1019.6
20240222071944 0 9 1.6 6.4 0.03 0.23 0.13 91 1019.5
20240222071444 0 9 0.0 3.2 0.00 0.20 0.10 91 1019.4
20240222070944 0 9 0.0 0.0 0.00 0.20 0.10 91 1019.2
20240222070444 0 9 0.0 1.6 0.00 0.20 0.10 90 1019.1
20240222065944 0 9 0.0 3.2 0.00 0.20 0.10 90 1019.2
20240222065444 0 9 0.0 3.2 0.00 0.20 0.10 90 1019.1
20240222064944 1 9 0.0 3.2 0.00 0.20 0.10 90 1018.9
20240222064444 1 9 0.0 0.0 0.00 0.20 0.10 90 1019.0
20240222063944 1 9 0.0 0.0 0.00 0.20 0.10 90 1018.9
20240222063444 1 9 0.0 0.0 0.00 0.20 0.10 90 1018.9
20240222062944 1 9 0.0 0.0 0.00 0.20 0.10 89 1018.7
20240222062444 1 9 0.0 3.2 0.00 0.20 0.10 89 1018.8
20240222061944 1 9 0.0 1.6 0.00 0.20 0.10 89 1018.7
20240222061444 1 9 0.0 1.6 0.00 0.20 0.10 89 1018.6
20240222060944 1 9 3.2 6.4 0.00 0.20 0.10 89 1018.6
20240222060444 1 9 3.2 9.7 0.00 0.20 0.10 89 1018.4
20240222055944 1 9 1.6 14.5 0.00 0.20 0.10 89 1018.3
20240222055444 1 11 0.0 0.0 0.00 0.20 0.10 89 1018.1
20240222054944 1 11 0.0 0.0 0.00 0.20 0.10 89 1018.0
20240222054444 1 11 0.0 0.0 0.00 0.20 0.10 88 1017.7
20240222053944 1 11 0.0 0.0 0.00 0.20 0.10 88 1017.8
20240222053444 1 11 0.0 0.0 0.00 0.20 0.10 89 1017.7
20240222052944 1 11 0.0 0.0 0.00 0.20 0.10 89 1017.7
20240222052444 1 11 0.0 0.0 0.00 0.20 0.10 89 1017.7
20240222051944 1 11 0.0 0.0 0.00 0.20 0.10 89 1017.6
20240222051444 1 11 0.0 1.6 0.00 0.20 0.10 89 1017.6
20240222050944 1 11 0.0 0.0 0.00 0.20 0.10 89 1017.5
20240222050444 1 11 0.0 0.0 0.00 0.20 0.10 89 1017.6
20240222045944 1 11 0.0 0.0 0.00 0.20 0.10 89 1017.6
20240222045444 1 11 0.0 0.0 0.00 0.20 0.10 90 1017.5
20240222044944 1 11 0.0 1.6 0.00 0.20 0.10 90 1017.5
20240222044444 1 11 0.0 0.0 0.00 0.20 0.10 90 1017.5
20240222043944 1 11 0.0 0.0 0.00 0.20 0.10 90 1017.5
20240222043444 1 11 0.0 0.0 0.00 0.20 0.10 90 1017.4
20240222042944 1 11 0.0 0.0 0.00 0.20 0.10 90 1017.4
20240222042444 1 11 0.0 0.0 0.00 0.20 0.10 90 1017.3
20240222041944 1 11 0.0 0.0 0.00 0.20 0.10 91 1017.3
20240222041444 1 11 0.0 0.0 0.00 0.20 0.10 91 1017.2
20240222040944 1 11 0.0 0.0 0.00 0.20 0.10 91 1017.2
20240222040444 1 11 0.0 0.0 0.00 0.20 0.10 91 1017.3
20240222035944 1 11 0.0 0.0 0.00 0.20 0.10 91 1017.3
20240222035444 1 11 0.0 0.0 0.00 0.20 0.10 91 1017.2
20240222034944 1 11 0.0 0.0 0.00 0.28 0.10 91 1017.0
20240222034444 1 11 0.0 0.0 0.00 0.28 0.10 91 1017.1
20240222033944 0 11 0.0 0.0 0.00 0.28 0.10 91 1017.1
20240222033444 0 11 0.0 0.0 0.00 0.28 0.10 91 1017.0
20240222032944 0 11 0.0 0.0 0.00 0.28 0.10 90 1017.0
20240222032444 0 11 0.0 0.0 0.00 0.28 0.10 90 1017.0
20240222031944 0 11 0.0 0.0 0.00 0.28 0.10 90 1017.0
20240222031444 1 11 0.0 0.0 0.00 0.28 0.10 90 1016.9
20240222030944 1 11 0.0 0.0 0.00 0.28 0.10 90 1016.8
20240222030444 1 11 0.0 0.0 0.00 0.28 0.10 90 1016.7
20240222025944 1 11 0.0 0.0 0.00 0.28 0.10 90 1016.7
20240222025444 1 11 0.0 0.0 0.00 0.28 0.10 90 1016.6
20240222024944 1 11 0.0 1.6 0.00 0.46 0.10 90 1016.6
20240222024444 1 11 0.0 0.0 0.00 0.46 0.10 90 1016.6
20240222023944 1 11 0.0 0.0 0.00 0.46 0.10 90 1016.4
20240222023444 1 11 0.0 0.0 0.00 0.46 0.10 90 1016.4
20240222022944 1 11 0.0 1.6 0.00 0.46 0.10 89 1016.3
20240222022444 1 11 0.0 1.6 0.00 0.46 0.10 89 1016.2
20240222021944 1 11 0.0 0.0 0.00 0.46 0.10 89 1016.2
20240222021444 1 11 0.0 0.0 0.00 0.46 0.10 89 1016.0
20240222020944 1 11 0.0 3.2 0.00 0.46 0.10 89 1016.0
20240222020444 1 11 0.0 0.0 0.00 0.46 0.10 89 1015.9
20240222015944 1 11 0.0 0.0 0.00 0.46 0.10 88 1015.8
20240222015444 1 11 0.0 1.6 0.00 0.46 0.10 88 1015.7
20240222014944 1 11 0.0 1.6 0.00 0.53 0.10 88 1015.6
20240222014444 1 11 0.0 0.0 0.00 0.53 0.10 88 1015.6
20240222013944 1 11 0.0 0.0 0.00 0.53 0.10 88 1015.5
20240222013444 2 11 0.0 0.0 0.00 0.53 0.10 88 1015.4
20240222012944 2 11 0.0 1.6 0.00 0.53 0.10 88 1015.2
20240222012444 2 11 0.0 0.0 0.00 0.53 0.10 88 1015.2
20240222011944 2 11 0.0 0.0 0.00 0.53 0.10 88 1015.2
20240222011444 2 11 0.0 0.0 0.00 0.53 0.10 88 1015.2
20240222010944 2 11 0.0 1.6 0.00 0.53 0.10 89 1015.2
20240222010444 2 11 0.0 3.2 0.00 0.53 0.10 89 1015.1
20240222005944 2 11 0.0 4.8 0.00 0.53 0.10 89 1014.9
20240222005444 2 11 1.6 4.8 0.00 0.53 0.10 89 1014.8
20240222004944 2 11 1.6 8.0 0.00 0.61 0.10 89 1014.6
20240222004444 2 11 0.0 4.8 0.00 0.61 0.10 90 1014.5
20240222003944 2 11 0.0 3.2 0.00 0.61 0.10 90 1014.4
20240222003445 2 11 0.0 3.2 0.00 0.61 0.10 90 1014.3
20240222002945 2 11 0.0 4.8 0.00 0.61 0.10 91 1014.2
20240222002444 2 11 0.0 4.8 0.00 0.61 0.10 91 1014.0
20240222001945 2 11 0.0 3.2 0.00 0.61 0.10 91 1013.9
20240222001445 2 11 1.6 4.8 0.00 0.61 0.10 91 1013.9
20240222000944 2 11 1.6 3.2 0.00 0.61 0.10 91 1013.8
20240222000445 2 11 0.0 6.4 0.00 0.61 0.10 91 1013.7
20240221235945 2 11 0.0 3.2 0.00 0.61 0.10 91 1013.5
20240221235445 2 11 0.0 3.2 0.00 0.61 0.10 91 1013.6
20240221234945 2 11 0.0 3.2 0.00 0.61 0.10 91 1013.5
20240221234445 2 11 0.0 3.2 0.00 0.61 0.10 91 1013.3
20240221233945 2 11 0.0 3.2 0.00 0.61 0.10 91 1013.2
20240221233445 2 11 1.6 4.8 0.00 0.61 0.10 91 1013.1
20240221232945 2 11 0.0 6.4 0.00 0.61 0.10 91 1013.0
20240221232445 2 11 0.0 0.0 0.00 0.61 0.10 92 1013.1
20240221231945 2 11 0.0 0.0 0.00 0.61 0.10 91 1013.0
20240221231445 2 11 0.0 0.0 0.00 0.61 0.10 91 1012.9
20240221230945 2 11 0.0 3.2 0.00 0.61 0.10 91 1012.7
20240221230445 2 11 1.6 3.2 0.00 0.61 0.10 91 1012.6
20240221225945 2 11 1.6 3.2 0.00 0.61 0.10 91 1012.5
20240221225445 2 11 1.6 6.4 0.03 0.61 0.10 91 1012.4
20240221224945 2 11 1.6 4.8 0.03 0.61 0.10 91 1012.4
20240221224445 2 11 3.2 4.8 0.03 0.61 0.10 90 1012.4
20240221223945 2 11 3.2 6.4 0.03 0.61 0.10 90 1012.2
20240221223445 2 11 3.2 8.0 0.03 0.61 0.10 90 1012.2
20240221222945 2 11 1.6 6.4 0.03 0.61 0.10 90 1012.1
20240221222445 2 11 1.6 4.8 0.03 0.61 0.10 90 1011.9
20240221221945 2 11 1.6 4.8 0.03 0.61 0.10 90 1011.8
20240221221445 2 11 1.6 6.4 0.03 0.61 0.10 90 1011.8
20240221220945 2 11 1.6 4.8 0.03 0.61 0.10 90 1011.7
20240221220445 2 11 1.6 4.8 0.03 0.61 0.10 90 1011.5
20240221215945 2 11 1.6 6.4 0.03 0.61 0.10 90 1011.3
20240221215445 3 11 3.2 9.7 0.00 0.58 0.08 89 1011.3
20240221214945 3 11 3.2 9.7 0.00 0.58 0.08 89 1011.3
20240221214445 3 10 1.6 6.4 0.00 0.58 0.08 89 1011.2
20240221213945 3 10 3.2 3.2 0.00 0.58 0.08 89 1011.0
20240221213445 3 10 3.2 6.4 0.00 0.58 0.08 89 1011.0
20240221212945 3 10 3.2 8.0 0.00 0.58 0.08 89 1010.9
20240221212445 3 9 3.2 9.7 0.00 0.58 0.08 89 1010.8
20240221211945 4 5 3.2 4.8 0.03 0.58 0.08 88 1010.7
20240221211445 4 5 3.2 9.7 0.03 0.58 0.08 88 1010.5
20240221210945 4 5 3.2 11.3 0.08 0.58 0.08 88 1010.3
20240221210445 5 5 3.2 8.0 0.08 0.58 0.08 89 1010.3
20240221205945 5 5 1.6 6.4 0.08 0.58 0.08 89 1010.2
20240221205445 5 5 1.6 6.4 0.08 0.58 0.08 89 1010.0
20240221204945 5 5 3.2 6.4 0.08 0.58 0.08 88 1010.1
20240221204445 5 5 3.2 8.0 0.08 0.58 0.08 88 1010.0
20240221203945 5 5 1.6 8.0 0.08 0.58 0.08 87 1010.0
20240221203445 5 5 1.6 6.4 0.08 0.58 0.08 86 1010.1
20240221202945 5 5 0.0 3.2 0.08 0.58 0.08 85 1010.1
20240221202445 5 5 0.0 0.0 0.08 0.58 0.08 84 1010.0
20240221201945 5 5 1.6 1.6 0.05 0.56 0.05 83 1010.1
20240221201445 5 5 1.6 4.8 0.05 0.56 0.05 82 1010.1
20240221200945 5 5 0.0 8.0 0.00 0.51 0.00 83 1010.0
20240221200445 5 10 0.0 3.2 0.00 0.51 0.00 82 1009.9
20240221195945 5 10 1.6 0.0 0.00 0.51 0.00 81 1009.9
20240221195445 5 10 1.6 6.4 0.00 0.51 0.00 80 1009.9
20240221194945 6 10 0.0 4.8 0.00 0.51 0.00 80 1009.8
20240221194445 6 11 1.6 4.8 0.00 0.51 0.00 80 1009.7
20240221193945 6 11 3.2 6.4 0.00 0.51 0.00 81 1009.7
20240221193445 6 11 4.8 9.7 0.00 0.51 0.00 81 1009.6
20240221192945 6 9 4.8 12.9 0.00 0.51 0.00 80 1009.6
20240221192445 6 0 3.2 11.3 0.00 0.51 0.00 79 1009.6
20240221191945 7 329 3.2 8.0 0.00 0.51 0.00 78 1009.6
20240221191445 7 323 1.6 11.3 0.00 0.51 0.00 76 1009.6
20240221190945 7 229 1.6 3.2 0.00 0.51 0.00 72 1009.5
20240221190445 7 229 1.6 9.7 0.00 0.51 0.00 72 1009.4
20240221185945 7 184 3.2 12.9 0.00 0.51 0.51 74 1009.5
20240221185445 6 217 3.2 8.0 0.00 0.51 0.51 74 1009.4
20240221184945 6 218 3.2 6.4 0.00 0.51 0.51 74 1009.4
20240221184445 6 225 3.2 12.9 0.00 0.51 0.51 75 1009.4
20240221183945 6 185 3.2 11.3 0.00 0.51 0.51 75 1009.3
20240221183445 6 182 4.8 9.7 0.00 0.51 0.51 76 1009.3
20240221182945 6 214 3.2 9.7 0.00 0.51 0.51 76 1009.2
20240221182445 6 182 4.8 8.0 0.00 0.51 0.51 76 1009.2
20240221181945 6 204 4.8 12.9 0.00 0.51 0.51 77 1009.3
20240221181445 6 282 4.8 12.9 0.00 0.51 0.51 77 1009.2
20240221180945 6 224 6.4 11.3 0.00 0.51 0.51 79 1009.2
20240221180445 6 153 6.4 20.9 0.00 0.51 0.51 77 1009.3
20240221175945 6 146 4.8 8.0 0.03 0.51 0.51 78 1009.2
20240221175445 6 167 6.4 14.5 0.03 0.51 0.51 78 1009.1
20240221174945 6 248 4.8 17.7 0.03 0.51 0.51 77 1009.3
20240221174445 6 177 6.4 11.3 0.03 0.51 0.51 78 1009.1
20240221173945 6 181 6.4 16.1 0.03 0.51 0.51 78 1009.0
20240221173445 6 183 6.4 14.5 0.03 0.51 0.51 79 1009.0
20240221172945 6 173 6.4 17.7 0.03 0.51 0.51 79 1009.0
20240221172445 6 166 6.4 14.5 0.03 0.51 0.51 80 1008.9
20240221171945 6 177 6.4 14.5 0.03 0.51 0.51 81 1008.9
20240221171445 5 168 6.4 16.1 0.03 0.51 0.51 82 1008.8
20240221170945 5 179 6.4 16.1 0.03 0.51 0.51 82 1008.7
20240221170445 5 188 6.4 14.5 0.03 0.51 0.51 82 1008.9
20240221165945 5 171 6.4 11.3 0.00 0.48 0.48 82 1008.8
20240221165445 5 175 6.4 17.7 0.00 0.48 0.48 82 1008.6
20240221164945 5 180 6.4 14.5 0.00 0.48 0.48 83 1008.6
20240221164445 5 175 6.4 16.1 0.00 0.48 0.48 83 1008.7
20240221163945 5 169 4.8 11.3 0.00 0.48 0.48 83 1008.7
20240221163445 5 181 4.8 11.3 0.00 0.48 0.48 82 1008.7
20240221162945 5 174 6.4 17.7 0.00 0.48 0.48 81 1008.7
20240221162446 5 174 6.4 12.9 0.00 0.48 0.48 81 1008.6
20240221161945 5 188 8.0 14.5 0.00 0.48 0.48 80 1008.7
20240221161445 5 183 6.4 16.1 0.00 0.48 0.48 81 1008.7
20240221160945 5 176 6.4 19.3 0.00 0.48 0.48 80 1008.6
20240221160445 5 165 6.4 12.9 0.00 0.48 0.48 81 1008.5
20240221155945 5 184 6.4 12.9 0.00 0.48 0.48 81 1008.6
20240221155445 5 182 8.0 17.7 0.00 0.48 0.48 81 1008.7
20240221154945 5 175 8.0 12.9 0.00 0.48 0.48 81 1008.7
20240221154445 5 177 8.0 14.5 0.00 0.48 0.48 81 1008.7
20240221153945 5 190 8.0 16.1 0.00 0.48 0.48 81 1008.6
20240221153445 5 192 6.4 20.9 0.00 0.48 0.48 82 1008.5
20240221152945 4 175 4.8 11.3 0.00 0.48 0.48 82 1008.6
20240221152445 4 173 3.2 9.7 0.00 0.48 0.48 82 1008.6
20240221151945 4 184 4.8 14.5 0.00 0.48 0.48 82 1008.5
20240221151445 4 185 6.4 11.3 0.00 0.48 0.48 82 1008.4
20240221150945 4 187 6.4 12.9 0.00 0.48 0.48 82 1008.1
20240221150445 4 180 6.4 11.3 0.00 0.48 0.48 82 1008.3
20240221145945 4 209 6.4 17.7 0.00 0.48 0.48 82 1008.6
20240221145445 4 188 6.4 16.1 0.00 0.48 0.48 82 1008.7
20240221144945 4 178 6.4 12.9 0.00 0.48 0.48 82 1008.7
20240221144445 4 185 4.8 11.3 0.00 0.48 0.48 82 1008.7
20240221143945 4 184 6.4 8.0 0.00 0.48 0.48 81 1008.7
20240221143446 4 185 6.4 14.5 0.00 0.48 0.48 81 1008.7
20240221142946 4 171 6.4 16.1 0.00 0.48 0.48 80 1008.9
20240221142445 5 189 6.4 14.5 0.00 0.48 0.48 80 1008.7
20240221141946 5 165 6.4 17.7 0.00 0.48 0.48 80 1008.8
20240221141446 5 162 4.8 16.1 0.00 0.48 0.48 79 1008.8
20240221140946 5 178 3.2 12.9 0.00 0.48 0.48 79 1008.6
20240221140446 5 151 4.8 9.7 0.00 0.48 0.48 79 1008.6
20240221135946 5 178 6.4 14.5 0.00 0.48 0.48 79 1008.7
20240221135446 5 173 6.4 14.5 0.00 0.48 0.48 79 1008.6
20240221134946 5 178 6.4 17.7 0.00 0.48 0.48 79 1008.5
20240221134446 5 192 4.8 11.3 0.00 0.48 0.48 79 1008.6
20240221133946 5 212 4.8 17.7 0.00 0.48 0.48 79 1008.8
20240221133446 5 223 4.8 16.1 0.00 0.48 0.48 79 1008.8
20240221132946 5 184 4.8 12.9 0.00 0.48 0.48 78 1008.7
20240221132446 5 210 4.8 11.3 0.00 0.48 0.48 79 1008.9
20240221131946 5 178 4.8 6.4 0.00 0.48 0.48 79 1008.9
20240221131446 5 176 6.4 16.1 0.03 0.48 0.48 79 1008.9
20240221130946 5 159 4.8 11.3 0.03 0.48 0.48 79 1009.0
20240221130446 5 174 6.4 19.3 0.03 0.48 0.48 79 1009.0
20240221125946 5 161 6.4 12.9 0.03 0.48 0.48 79 1008.9
20240221125446 5 182 6.4 19.3 0.03 0.48 0.48 80 1009.0
20240221124946 5 166 6.4 22.5 0.03 0.48 0.48 80 1008.9
20240221124446 5 236 6.4 17.7 0.03 0.48 0.48 80 1008.8
20240221123946 4 196 6.4 12.9 0.03 0.48 0.48 81 1008.9
20240221123446 4 194 4.8 14.5 0.03 0.48 0.48 81 1008.9
20240221122946 4 166 4.8 14.5 0.03 0.48 0.48 81 1008.8
20240221122446 5 163 6.4 14.5 0.03 0.48 0.48 81 1008.9
20240221121946 5 172 6.4 12.9 0.03 0.48 0.48 81 1008.9
20240221121446 5 203 6.4 14.5 0.00 0.46 0.46 81 1008.8
20240221120946 5 163 4.8 11.3 0.00 0.46 0.46 81 1008.9
20240221120446 5 215 4.8 12.9 0.00 0.46 0.46 81 1009.0
20240221115946 5 190 6.4 19.3 0.00 0.46 0.46 81 1008.9
20240221115446 5 161 6.4 12.9 0.00 0.46 0.46 80 1008.9
20240221114946 5 148 6.4 17.7 0.00 0.46 0.46 80 1009.0